sat.trackr.live / text

‹ back to catalog

NIGERIASAT-2

NORAD 37789 · 2011-044B

PAYLOAD ACTIVE UNKNOWN

§ Identity

Operator
Country
NIG
Launch date
2011-08-17
Launch site
DLS
Launch vehicle
Mass (kg)
RCS (m²)
0.50

External: N2YO · Heavens-Above · Gunter

§ Orbital elements

Epoch: 2026-09-10T04:48:34.979904Z

Period
97.92 min
Inclination
97.8875°
Eccentricity
0.0029006
Mean motion
14.70579570 rev/d
Perigee alt
638.8 km
Apogee alt
679.6 km
Semi-major
7,037.4 km
B*
1.1991e-4
RAAN
227.5895°
Arg perigee
208.1534°
Mean anomaly
273.7385°
Rev number
80,306

§ Raw data

NIGERIASAT-21 37789U 11044B   26253.20040486  .00000684  00000+0  11991-3 0  99972 37789  97.8875 227.5895 0029006 208.1534 273.7385 14.70579570803065

JSON: /api/v1/satellites/37789 · /tle

For live sub-satellite position, see the globe view (requires WebGL).

§ Visibility from observer

Set your observer location to see the next 7 days of passes ≥ 10°. The values pass through the URL so the page stays shareable.

No JS? Fill the form by hand. The geolocation button needs JavaScript.